Location: Ferchesar
(52.6477°N, 12.4298°E)
Time: 06:01:31
(UTC+02:00)

Tiros 1 despin weight - Visible Passes

Search period start: 19 May 2021 00:00
Search period end: 29 May 2021 00:00
Orbit: 593 x 642 km, 48.2° (Epoch: 18 May)

Date Brightness Start Highest point End Pass type
(mag) Time Alt. Az. Time Alt. Az. Time Alt. Az.
19 May ? 00:07:35 10° W 00:11:41 30° SSW 00:12:18 29° S visible
19 May ? 22:42:20 10° W 22:46:48 44° SSW 22:50:29 14° SE visible
20 May ? 00:24:06 10° W 00:27:29 22° SW 00:27:29 22° SW visible
20 May ? 22:58:38 10° W 23:02:55 35° SSW 23:05:40 19° SE visible
21 May ? 00:41:05 10° WSW 00:42:41 14° SW 00:42:41 14° SW visible
21 May ? 23:15:02 10° W 23:18:58 27° SSW 23:20:54 20° S visible
22 May ? 21:49:43 10° W 21:54:06 40° SSW 21:58:30 10° SE visible
22 May ? 23:31:41 10° WSW 23:34:54 18° SW 23:36:10 17° SSW visible
23 May ? 22:06:03 10° W 22:10:12 32° SSW 22:14:21 10° SE visible
23 May ? 23:49:09 10° WSW 23:50:45 12° SW 23:51:27 11° SSW visible
24 May ? 22:22:32 10° W 22:26:13 23° SSW 22:29:46 11° SSE visible
25 May ? 22:39:22 10° WSW 22:42:07 16° SW 22:44:52 10° S visible
